[[{"header":{"parameterUnit":"m.s-1","parameterCategory":1,"la1":30.2991,"la2":30.254,"lo1":-89.0895,"lo2":-89.0444,"dy":0.0017,"dx":0.0017,"nx":28,"ny":28,"refTime":"2025-09-19T09:00:00:Z","depth":0,"parameterNumber":2,"parameterNumberName":"U-component_of_WINDS"},"data":[0,0,0,0,0,0,0,0,0,0,0,0,0,0,0,0,0,0,0,0,0,0,0,0,0,0,0,0,0,0,0,0,0,0,0,0,0,0,0,0,0,0,0,0,0,0,0,0,0,0,0,0,0,0,0,0,0,0,4.0794,4.0794,0,4.0853,4.0853,4.0854,4.0765,4.0762,4.0759,4.0756,4.0816,4.082,4.0825,0,0,0,0,0,0,0,0,0,0,0,0,0,4.0602,4.0606,4.0794,4.0794,4.0795,4.0853,4.0853,4.0854,4.0765,4.0762,4.0758,4.0754,4.0814,4.082,4.0825,0,0,0,0,0,0,0,0,0,0,0,0,0,4.0676,4.0607,4.0794,4.0758,4.0755,4.0852,4.0853,4.0854,4.0766,4.0762,4.0757,4.0753,4.0813,4.0819,4.0826,4.0961,0,0,4.0846,4.0849,0,0,0,0,0,0,0,0,4.0671,4.0683,4.0762,4.076,4.0758,4.0797,4.0808,4.089,4.0767,4.0762,4.0756,4.075,4.0813,4.082,4.0841,4.0964,4.0966,4.0847,4.0851,4.0854,4.0856,0,0,0,0,0,0,0,4.0666,4.068,4.0817,4.0764,4.0761,4.0738,4.0743,4.0823,4.0813,4.0762,4.0756,4.0764,4.0811,4.0835,4.0842,4.0967,4.0847,4.0853,4.0857,4.086,4.1199,4.1204,0,0,0,0,0,0,4.0666,4.0676,4.0815,4.0819,4.0702,4.0745,4.0751,4.0789,4.0812,4.0811,4.0768,4.076,4.0825,4.0834,4.0843,4.0999,4.0854,4.086,4.0864,4.1194,4.12,4.1205,0,0,0,0,0,0,4.0662,4.0679,4.0813,4.0746,4.0761,4.0754,4.0797,4.0792,4.0816,4.0816,4.0814,4.0794,4.0822,4.0834,4.0931,4.1,4.0863,4.0869,4.1188,4.1196,4.1203,4.1315,0,0,0,0,0,0,4.0657,4.0678,4.073,4.0747,4.0765,4.0901,4.0801,4.0797,4.0828,4.0817,4.084,4.0839,4.0819,4.0922,4.0938,4.1007,4.0875,4.1182,4.1192,4.12,4.1305,4.1325,4.1343,0,0,0,0,0,4.065,4.076,4.0733,4.0751,4.083,4.0905,4.0915,4.0889,4.0834,4.0885,4.0885,4.0839,4.0991,4.0932,4.095,4.1022,4.1177,4.1189,4.12,4.1297,4.1321,4.1342,0,0,0,0,0,0,4.0752,4.0762,4.0732,4.0851,4.0878,4.089,4.0954,4.0917,4.096,4.0949,4.0915,4.0921,4.1025,4.1034,4.0969,4.1152,4.1075,4.109,4.1142,4.1166,4.1184,4.1179,4.088,0,0,0,0,0,4.0788,4.0849,4.0854,4.0959,4.0974,4.0962,4.0994,4.0972,4.0998,4.1009,4.1016,4.1043,4.1096,4.1132,4.1181,4.1307,4.1308,4.1365,4.1384,4.1399,4.1412,4.1475,4.1499,4.1242,4.1242,4.1242,0,0,4.0864,4.0877,4.0917,4.0979,4.0997,4.1059,4.0972,4.1042,4.1087,4.1019,4.111,4.1117,4.1144,4.1255,4.1305,4.1266,4.1484,4.1414,4.1426,4.143,4.1489,4.1514,4.1535,4.125,4.1248,4.1247,0,0,4.1032,4.105,4.1136,4.1156,4.1184,4.1175,4.1196,4.1213,4.1214,4.1305,4.1254,4.1308,4.1402,4.1422,4.1445,4.1619,4.1577,4.1636,4.1734,4.1796,4.1816,4.1834,4.1893,4.1915,4.165,4.165,4.165,0,4.1122,4.1214,4.1186,4.1259,4.1286,4.1227,4.1314,4.1334,4.1377,4.1397,4.1353,4.1467,4.1482,4.1595,4.1637,4.1659,4.168,4.1632,4.1816,4.1833,4.1849,4.1905,4.1928,4.1657,4.1656,4.1655,4.1654,0,4.1322,4.1387,4.1454,4.1495,4.153,4.161,4.1592,4.1632,4.1606,4.1602,4.1694,4.1709,4.1759,4.1785,4.1762,4.1894,4.1868,4.1821,4.1742,4.1881,4.1932,4.1954,4.1666,4.1664,4.1662,4.166,0,0,4.1556,4.1579,4.1604,4.1621,4.1646,4.1695,4.1772,4.182,4.1852,4.1884,4.1945,4.2025,4.198,4.2006,4.1984,4.2039,4.2172,4.1985,4.1985,4.2016,4.2315,4.2348,4.2373,4.2145,4.2149,4.2152,4.2311,0,4.1721,4.1852,4.1828,4.1955,4.2012,4.1956,4.2021,4.2044,4.2041,4.2089,4.2086,4.2141,4.208,4.2094,4.2146,4.2145,4.2231,4.2133,4.2199,4.2202,4.2191,4.2401,4.2437,4.2586,4.2331,4.2335,4.2337,0,4.1932,4.1969,4.2102,4.2115,4.2138,4.2198,4.2238,4.2286,4.2309,4.2303,4.2331,4.2298,4.2372,4.2293,4.2393,4.2327,4.2353,4.2356,4.2361,4.2364,4.2276,4.2406,4.2633,4.2655,4.2369,4.2367,4.2365,0,4.2085,4.2169,4.2258,4.2274,4.2294,4.2336,4.2346,4.2364,4.2394,4.243,4.2448,4.2492,4.2516,4.255,4.2529,4.2475,4.2632,4.2552,4.2626,4.2627,4.266,4.2658,4.2891,4.2682,4.2682,4.2681,4.2681,0,4.227,4.2353,4.2326,4.2381,4.2471,4.2441,4.2531,4.2534,4.2551,4.2604,4.2559,4.2609,4.258,4.2628,4.2613,4.2696,4.2708,4.2703,4.2698,4.2706,4.2706,4.272,4.2708,4.2687,4.2686,4.2685,4.2684,0,4.2455,4.2442,4.2534,4.2544,4.2548,4.2614,4.2621,4.2671,4.2665,4.2732,4.2747,4.2736,4.279,4.2773,4.2832,4.2821,4.2925,4.2908,4.2917,4.2912,4.2985,4.2978,4.3234,4.3265,4.3039,4.3041,4.3043,0,4.2573,4.2635,4.2651,4.2682,4.2695,4.2748,4.2777,4.2751,4.2783,4.2812,4.2858,4.2908,4.2946,4.3034,4.3031,4.3075,4.3057,4.3143,4.3063,4.3068,4.3054,4.3049,4.3053,4.3159,4.3161,4.3164,4.3165,0,4.2783,4.2772,4.2816,4.2857,4.2893,4.2925,4.2952,4.298,4.2955,4.2993,4.3047,4.3077,4.3135,4.3184,4.3224,4.3232,4.3194,4.3191,4.321,4.3217,4.3218,4.3215,4.2958,4.3185,4.3183,4.3181,4.318,4.3179,4.2935,4.2986,4.3004,4.3054,4.3071,4.3097,4.3143,4.3142,4.3186,4.3231,4.3213,4.3274,4.3293,4.3342,4.3356,4.3402,4.3369,4.3397,4.3404,4.341,4.3418,4.3213,4.341,4.3409,4.3409,4.3408,4.3408,0,4.3139,4.3147,4.3194,4.3232,4.327,4.3231,4.3259,4.3293,4.3348,4.3369,4.3406,4.3467,4.3513,4.3514,4.3557,4.3594,4.3577,4.3606,4.3601,4.3603,4.3447,4.3425,4.3618,4.3618,4.3618,4.3618,4.3618,4.3618,4.3249,4.3332,4.3323,4.3413,4.3421,4.348,4.3499,4.3521,4.3537,4.3607,4.3645,4.3645,4.3657,4.37,4.374,4.3739,4.3755,4.379,4.3782,4.3636,4.3615,4.3595,4.3573,4.3795,4.3795,4.3933,4.3935,4.3936]},{"header":{"parameterUnit":"m.s-1","parameterCategory":1,"la1":30.2991,"la2":30.254,"lo1":-89.0895,"lo2":-89.0444,"dy":0.0017,"dx":0.0017,"nx":28,"ny":28,"refTime":"2025-09-19T09:00:00:Z","depth":0,"parameterNumber":3,"parameterNumberName":"V-component_of_WINDS"},"data":[0,0,0,0,0,0,0,0,0,0,0,0,0,0,0,0,0,0,0,0,0,0,0,0,0,0,0,0,0,0,0,0,0,0,0,0,0,0,0,0,0,0,0,0,0,0,0,0,0,0,0,0,0,0,0,0,0,0,2.1605,2.1605,0,2.1647,2.1647,2.1647,2.1633,2.1632,2.1631,2.163,2.1669,2.1671,2.1673,0,0,0,0,0,0,0,0,0,0,0,0,0,2.1508,2.151,2.1605,2.1605,2.1606,2.1646,2.1647,2.1648,2.1633,2.1632,2.1631,2.163,2.1668,2.167,2.1673,0,0,0,0,0,0,0,0,0,0,0,0,0,2.155,2.1511,2.1605,2.1603,2.1604,2.1646,2.1647,2.1648,2.1633,2.1632,2.163,2.1629,2.1668,2.167,2.1673,2.1718,0,0,2.1682,2.1683,0,0,0,0,0,0,0,0,2.1548,2.1554,2.1603,2.1604,2.1604,2.1633,2.1627,2.1671,2.1633,2.1622,2.163,2.1628,2.1658,2.1661,2.1672,2.172,2.1722,2.1682,2.1684,2.1685,2.1686,0,0,0,0,0,0,0,2.1545,2.1552,2.1621,2.1604,2.1604,2.1599,2.1604,2.1636,2.1647,2.1623,2.1622,2.1627,2.1658,2.1669,2.1673,2.1722,2.1682,2.1684,2.1686,2.1687,2.1808,2.181,0,0,0,0,0,0,2.1542,2.1549,2.162,2.1622,2.1572,2.1602,2.1607,2.1625,2.1647,2.1649,2.1628,2.1626,2.1665,2.167,2.1674,2.1728,2.1685,2.1688,2.1689,2.1807,2.1809,2.181,0,0,0,0,0,0,2.154,2.1549,2.1618,2.1586,2.1594,2.1606,2.1626,2.1627,2.1638,2.1651,2.1652,2.1638,2.1664,2.167,2.1707,2.1729,2.1689,2.1691,2.1805,2.1807,2.1809,2.1836,0,0,0,0,0,0,2.1538,2.1548,2.1566,2.1586,2.1596,2.1652,2.1627,2.1628,2.1644,2.1641,2.1661,2.1662,2.1664,2.1703,2.171,2.1732,2.1694,2.1803,2.1806,2.1809,2.1833,2.1838,2.1843,0,0,0,0,0,2.1534,2.1571,2.1567,2.1576,2.1619,2.1653,2.1659,2.166,2.1646,2.1663,2.1671,2.1662,2.1726,2.1707,2.1715,2.1738,2.1802,2.1805,2.1809,2.183,2.1837,2.1843,0,0,0,0,0,0,2.1552,2.1574,2.157,2.1614,2.1632,2.1651,2.1673,2.1668,2.1689,2.1686,2.1686,2.169,2.1729,2.1737,2.1716,2.1782,2.1761,2.1766,2.1775,2.1782,2.1787,2.1784,2.1696,0,0,0,0,0,2.1561,2.1588,2.1605,2.1643,2.1653,2.1661,2.1676,2.1676,2.1694,2.1701,2.1712,2.1728,2.1752,2.1768,2.179,2.1834,2.1838,2.1854,2.1859,2.1863,2.1867,2.189,2.1897,2.1821,2.1821,2.1821,0,0,2.158,2.1595,2.1612,2.1647,2.1661,2.1688,2.1668,2.1697,2.1716,2.1705,2.1741,2.175,2.1768,2.1809,2.1827,2.1817,2.1889,2.1868,2.1871,2.1873,2.1895,2.1902,2.1908,2.1824,2.1823,2.1823,0,0,2.1628,2.1643,2.1676,2.1691,2.1712,2.1718,2.1726,2.1746,2.1751,2.1788,2.178,2.1802,2.1843,2.1857,2.1869,2.1923,2.1914,2.193,2.1957,2.1979,2.1985,2.199,2.2009,2.2015,2.1934,2.1934,2.1934,0,2.1649,2.169,2.1693,2.1724,2.1738,2.1731,2.1764,2.1777,2.1805,2.1815,2.1803,2.1855,2.1867,2.191,2.1923,2.1934,2.1942,2.1927,2.1984,2.199,2.1995,2.2012,2.2019,2.1936,2.1936,2.1936,2.1935,0,2.1713,2.1742,2.1766,2.1794,2.1812,2.1843,2.185,2.1867,2.1866,2.1873,2.1909,2.1924,2.1949,2.1959,2.1958,2.2002,2.1995,2.1984,2.1963,2.2003,2.202,2.2026,2.1938,2.1938,2.1937,2.1937,0,0,2.1772,2.1803,2.1812,2.1824,2.1848,2.1869,2.19,2.1926,2.194,2.1959,2.1984,2.2019,2.2009,2.2023,2.2023,2.2043,2.2084,2.203,2.203,2.2038,2.2132,2.2139,2.2147,2.2079,2.208,2.2081,2.213,0,2.1822,2.1877,2.1881,2.193,2.1956,2.195,2.1976,2.1992,2.2,2.2022,2.2029,2.2053,2.2039,2.2047,2.2067,2.2075,2.2102,2.2071,2.21,2.2101,2.2095,2.2156,2.2164,2.2209,2.2137,2.2138,2.2139,0,2.1886,2.1909,2.1961,2.1981,2.1992,2.2016,2.2039,2.2061,2.208,2.2083,2.2099,2.2097,2.2126,2.2105,2.2146,2.2124,2.2137,2.2142,2.2144,2.2146,2.2121,2.2158,2.2224,2.223,2.2149,2.2148,2.2147,0,2.1923,2.1966,2.2003,2.2014,2.2038,2.2055,2.2066,2.2083,2.2098,2.2119,2.2129,2.2152,2.2164,2.2182,2.2185,2.217,2.2225,2.2205,2.2228,2.2228,2.2239,2.2238,2.2306,2.2249,2.2249,2.2249,2.2249,0,2.1976,2.2008,2.2019,2.2042,2.2077,2.2081,2.2115,2.2124,2.214,2.2163,2.2159,2.218,2.2184,2.2206,2.2209,2.2241,2.2247,2.225,2.225,2.2249,2.2249,2.2256,2.2253,2.225,2.225,2.225,2.2249,0,2.2022,2.2032,2.2071,2.2091,2.2097,2.2122,2.2139,2.216,2.2167,2.2196,2.2203,2.2213,2.2239,2.2245,2.2274,2.2276,2.2314,2.2312,2.2308,2.2308,2.233,2.2328,2.2405,2.2415,2.2352,2.2353,2.2353,0,2.2055,2.208,2.2103,2.2119,2.2131,2.2157,2.2173,2.2178,2.2194,2.2217,2.2235,2.2261,2.2281,2.2322,2.2331,2.2354,2.2351,2.2377,2.2354,2.2353,2.235,2.2348,2.235,2.2381,2.2381,2.2382,2.2382,0,2.2112,2.2116,2.214,2.2166,2.2185,2.2205,2.2224,2.2237,2.2244,2.2263,2.229,2.2306,2.2337,2.2362,2.2385,2.2395,2.2389,2.239,2.2396,2.2395,2.2391,2.2392,2.2319,2.2387,2.2387,2.2386,2.2386,2.2386,2.2152,2.2173,2.2193,2.222,2.2235,2.2253,2.2274,2.2284,2.2307,2.2334,2.2335,2.2364,2.2381,2.2412,2.2423,2.2445,2.2437,2.2446,2.2448,2.245,2.2452,2.2389,2.2449,2.2449,2.2449,2.2449,2.2449,0,2.2207,2.2221,2.2245,2.2273,2.2294,2.2289,2.231,2.2327,2.2353,2.237,2.2391,2.2422,2.2446,2.2458,2.2481,2.2497,2.2495,2.2502,2.25,2.2503,2.2458,2.245,2.2504,2.2504,2.2504,2.2504,2.2504,2.2504,2.2239,2.2274,2.228,2.2323,2.2336,2.2365,2.2377,2.2393,2.2407,2.2442,2.2463,2.2471,2.2486,2.2511,2.2532,2.2535,2.2543,2.2552,2.2553,2.2511,2.2506,2.25,2.2492,2.2554,2.2554,2.2596,2.2596,2.2596]}]]